Weather History for KPHP - January, 2013

Change the Weather History Date:

Tuesday, January 1, 2013

  Actual Average Record
Temperature  
Mean Temperature 18 °F 21 °F  
Max Temperature 32 °F 34 °F - ()
Min Temperature 3 °F 9 °F - ()
Degree Days  
Heating Degree Days 47 44  
Month to date heating degree days 47 44  
Since 1 July heating degree days 2811 2979  
Cooling Degree Days 0 0  
Month to date cooling degree days 0 0  
Year to date cooling degree days 0 0  
Moisture  
Dew Point 17 °F    
Average Humidity 75    
Maximum Humidity 92    
Minimum Humidity 58    
Precipitation  
Precipitation 0.01 in 0.01 in - ()
Month to date precipitation 0.01 0.01  
Year to date precipitation 0.01 0.01  
Sea Level Pressure  
Sea Level Pressure 30.12 in    
Wind  
Wind Speed 9 mph (West)    
Max Wind Speed 20 mph    
Max Gust Speed 25 mph    
Visibility 8 miles    
Events Snow    
T = Trace of Precipitation, MM = Missing Value Source: NWS Daily Summary

Daily Weather History Graph

Daily Weather History Graph

Search for Another Location

Airport or City:

Trip Planner

Search our weather history database for the weather conditions in past years. The results will help you decide how hot, cold, wet, or windy it might be!

Date:

Astronomy

Jan. 01, 2013 Rise Set
Actual Time 7:21 AM MST 4:19 PM MST
Civil Twilight 6:48 AM MST 4:52 PM MST
Nautical Twilight 6:12 AM MST 5:28 PM MST
Astronomical Twilight 5:36 AM MST 6:03 PM MST
Moon 9:02 PM MST (1/1) 9:25 AM MST (1/1)
Length of Visible Light 10h 03m
Length of Day
8h 57m
Waning Gibbous, 83% of the Moon is Illuminated
Jan 1
Waning Gibbous
Jan 4
Last Quarter
Jan 11
New
Jan 18
First Quarter
Jan 26
Full

Hourly Weather History & Observations

Time (MST) Temp. Windchill Dew Point Humidity Pressure Visibility Wind Dir Wind Speed Gust Speed Precip Events Conditions
12:55 AM 5.0 °F - 1.9 °F 87% 30.22 in 10.0 mi Calm Calm - N/A   Clear
1:55 AM 3.9 °F -3.4 °F -0.0 °F 84% 30.22 in 10.0 mi WSW 3.5 mph - N/A   Clear
2:55 AM 6.1 °F -5.6 °F 3.0 °F 87% 30.22 in 10.0 mi West 6.9 mph - N/A   Clear
3:55 AM 7.0 °F -7.5 °F 3.9 °F 87% 30.22 in 10.0 mi West 10.4 mph - N/A   Clear
4:55 AM 8.1 °F -4.3 °F 5.0 °F 87% 30.21 in 10.0 mi West 8.1 mph - N/A   Clear
5:55 AM 7.0 °F -6.6 °F 3.9 °F 87% 30.22 in 10.0 mi West 9.2 mph - N/A   Clear
6:55 AM 6.1 °F -5.6 °F 3.0 °F 87% 30.23 in 10.0 mi WNW 6.9 mph - N/A   Clear
7:55 AM 9.0 °F -5.1 °F 5.0 °F 84% 30.23 in 10.0 mi West 10.4 mph - N/A   Clear
8:55 AM 12.9 °F -0.9 °F 9.0 °F 84% 30.23 in 10.0 mi West 11.5 mph - N/A   Clear
9:55 AM 19.0 °F 8.2 °F 14.0 °F 81% 30.22 in 10.0 mi West 9.2 mph - N/A   Clear
10:55 AM 24.1 °F 13.7 °F 16.0 °F 71% 30.19 in 10.0 mi WSW 10.4 mph - N/A   Clear
11:55 AM 28.0 °F 18.6 °F 16.0 °F 61% 30.16 in 10.0 mi West 10.4 mph - N/A   Clear
12:55 PM 28.9 °F 19.8 °F 17.1 °F 61% 30.13 in 10.0 mi WSW 10.4 mph - N/A   Scattered Clouds
1:55 PM 28.9 °F 19.8 °F 18.0 °F 64% 30.11 in 10.0 mi WSW 10.4 mph - N/A   Clear
2:55 PM 30.9 °F 24.3 °F 19.0 °F 61% 30.10 in 10.0 mi WSW 6.9 mph - N/A   Overcast
3:55 PM 28.0 °F - 19.0 °F 69% 30.09 in 10.0 mi Calm Calm - N/A   Mostly Cloudy
4:55 PM 23.0 °F 15.8 °F 16.0 °F 74% 30.10 in 10.0 mi West 5.8 mph - N/A   Clear
5:55 PM 19.9 °F 9.3 °F 15.1 °F 81% 30.10 in 10.0 mi West 9.2 mph - N/A   Partly Cloudy
6:55 PM 21.9 °F 13.4 °F 17.1 °F 82% 30.10 in 10.0 mi West 6.9 mph - N/A   Overcast
7:55 PM 24.1 °F 16.0 °F 19.0 °F 81% 30.09 in 10.0 mi West 6.9 mph - N/A   Overcast
8:45 PM 28.4 °F 19.7 °F 26.6 °F 93% 29.99 in 4.0 mi WNW 9.2 mph - 0.00 in Snow Light Snow
8:55 PM 28.9 °F 20.4 °F 27.0 °F 92% 30.08 in 3.0 mi WNW 9.2 mph - 0.00 in Snow Light Snow
9:13 PM 30.2 °F 20.8 °F 26.6 °F 86% 29.99 in 4.0 mi WNW 11.5 mph - 0.00 in Snow Light Snow
9:46 PM 30.2 °F 18.9 °F 26.6 °F 86% 30.00 in 2.5 mi NW 16.1 mph 25.3 mph 0.01 in Snow Light Snow
9:52 PM 28.4 °F 16.2 °F 26.6 °F 93% 30.00 in 3.0 mi NW 17.3 mph 25.3 mph 0.01 in Snow Light Snow
9:55 PM 28.9 °F 17.3 °F 27.0 °F 92% 30.08 in 3.0 mi NW 16.1 mph - 0.01 in Snow Light Snow
10:05 PM 28.4 °F 16.2 °F 26.6 °F 93% 30.00 in 2.5 mi NW 17.3 mph - 0.00 in Snow Light Snow
10:18 PM 28.4 °F 16.6 °F 26.6 °F 93% 30.01 in 3.0 mi NW 16.1 mph - 0.00 in Snow Light Snow
10:45 PM 28.4 °F 15.8 °F 26.6 °F 93% 30.02 in 2.0 mi NW 18.4 mph - 0.00 in Snow Light Snow
10:55 PM 28.9 °F 16.9 °F 27.0 °F 92% 30.09 in 2.0 mi NW 17.3 mph - 0.00 in Snow Light Snow
11:14 PM 28.4 °F 16.6 °F 26.6 °F 93% 30.02 in 4.0 mi NW 16.1 mph - 0.00 in Snow Light Snow
11:55 PM 28.9 °F 17.7 °F 26.1 °F 89% 30.08 in 10.0 mi NW 15.0 mph - 0.00 in   Overcast